Skip to main content

Cabo Carvoeiro

ID 1200531 · 39.3800, -9.4074 map

Latest reading · 2026-05-09 19:00 (Europe/Lisbon)

Temperature
Humidity
Pressure
1,006.2 hPa
Precipitation
0.0 mm
Radiation
Wind speed
27.4 km/h
Wind direction
S · South

24-hour history

Time (Europe/Lisbon) Temp Humidity Pressure Rain Wind Dir
2026-05-09 19:00 1,006.2 0.0 mm 27.4 km/h S
2026-05-09 18:00 1,005.8 0.1 mm 21.2 km/h S
2026-05-09 17:00 1,005.3 0.0 mm 29.5 km/h S
2026-05-09 16:00 1,005.3 6.8 mm 19.8 km/h S
2026-05-09 15:00 1,004.6 0.3 mm 27.4 km/h
2026-05-09 14:00 1,004.0 0.0 mm 41.8 km/h S
2026-05-09 13:00 1,003.6 0.0 mm 44.3 km/h S
2026-05-09 12:00 1,003.4 0.0 mm 37.4 km/h S
2026-05-09 11:00 1,003.2 0.0 mm 28.8 km/h S
2026-05-09 10:00 1,002.8 0.0 mm 25.9 km/h SE
2026-05-09 09:00 1,002.8 0.0 mm 24.5 km/h SE
2026-05-09 08:00 1,002.9 0.6 mm 18.4 km/h SE
2026-05-09 07:00 1,002.9 3.8 mm 31.3 km/h SE
2026-05-09 06:00 1,002.5 0.3 mm 28.1 km/h SE
2026-05-09 05:00 1,002.9 0.0 mm 29.5 km/h SE
2026-05-09 04:00 1,003.4 0.0 mm 34.6 km/h SE
2026-05-09 03:00 1,003.8 0.0 mm 34.2 km/h SE
2026-05-09 02:00 1,004.3 0.0 mm 39.6 km/h SE
2026-05-09 01:00 1,004.1 0.0 mm 44.3 km/h SE
2026-05-09 00:00 1,004.5 1.8 mm 33.5 km/h S
2026-05-08 23:00 1,004.8 0.0 mm 32.8 km/h SE
2026-05-08 22:00 1,005.1 0.0 mm 28.1 km/h SE
2026-05-08 21:00 1,005.4 0.2 mm 29.9 km/h SE
2026-05-08 20:00 1,005.5 0.0 mm 27.0 km/h SE